Weather History for Tunica, MS

Change the Weather History Date:

Thursday, January 24, 2013

  Actual Average (KMEM) Record (KMEM)
Temperature  
Mean Temperature 42 °F 41 °F  
Max Temperature 46 °F 50 °F 78 °F (1943)
Min Temperature 37 °F 33 °F 0 °F (1963)
Degree Days  
Heating Degree Days 24 24  
Month to date heating degree days 576  
Since 1 July heating degree days 1740  
Cooling Degree Days 0 0  
Month to date cooling degree days 0  
Year to date cooling degree days 0  
Moisture  
Dew Point 30 °F    
Average Humidity 65    
Maximum Humidity 93    
Minimum Humidity 46    
Precipitation  
Precipitation 0.00 in 0.13 in 2.74 in (1937)
Month to date precipitation 3.07  
Year to date precipitation 3.07  
Snow  
Snow 0.00 in 0.00 in 2.50 in (1894)
Month to date snowfall 1.4  
Since 1 July snowfall 1.6  
Snow Depth -    
Sea Level Pressure  
Sea Level Pressure 30.32 in    
Wind  
Wind Speed 9 mph (NE)    
Max Wind Speed 18 mph    
Max Gust Speed 21 mph    
Visibility 10 miles    
Events      
T = Trace of Precipitation, MM = Missing Value Source: NWS Daily Summary

Daily Weather History Graph

Daily Weather History Graph

Search for Another Location

Airport:

Trip Planner

Search our weather history database for the weather conditions in past years. The results will help you decide how hot, cold, wet, or windy it might be!

Date:

Astronomy

Jan. 24, 2013 Rise Set
Actual Time 7:04 AM CST 5:22 PM CST
Civil Twilight 6:37 AM CST 5:49 PM CST
Nautical Twilight 6:07 AM CST 6:20 PM CST
Astronomical Twilight 5:37 AM CST 6:50 PM CST
Moon 3:26 PM CST (1/24) 5:00 AM CST (1/24)
Length of Visible Light 11h 12m
Length of Day
10h 18m
Waxing Gibbous, 94% of the Moon is Illuminated
Jan 24
Waxing Gibbous
Jan 26
Full
Feb 3
Last Quarter
Feb 10
New
Feb 17
First Quarter

Hourly Weather History & Observations

Time (CST) Temp. Windchill Dew Point Humidity Pressure Visibility Wind Dir Wind Speed Gust Speed Precip Events Conditions
12:15 AM 44.6 °F - 42.8 °F 93% 30.21 in 10.0 mi Calm Calm - N/A   Mostly Cloudy
12:35 AM 46.4 °F 44.3 °F 42.8 °F 87% 30.21 in 10.0 mi NNE 4.6 mph - N/A   Mostly Cloudy
12:55 AM 46.4 °F 43.5 °F 42.8 °F 87% 30.22 in 10.0 mi North 5.8 mph 10.4 mph N/A   Mostly Cloudy
1:15 AM 44.6 °F 40.7 °F 42.8 °F 93% 30.23 in 10.0 mi North 6.9 mph - N/A   Overcast
1:35 AM 44.6 °F 40.2 °F 42.8 °F 93% 30.23 in 10.0 mi NNE 8.1 mph - N/A   Mostly Cloudy
1:55 AM 46.4 °F 45.2 °F 42.8 °F 87% 30.25 in 10.0 mi North 3.5 mph - N/A   Mostly Cloudy
2:15 AM 46.4 °F 44.3 °F 42.8 °F 87% 30.25 in 10.0 mi NNE 4.6 mph - N/A   Overcast
2:35 AM 46.4 °F 45.2 °F 42.8 °F 87% 30.25 in 10.0 mi North 3.5 mph - N/A   Overcast
2:55 AM 46.4 °F - 42.8 °F 87% 30.25 in 10.0 mi Calm Calm - N/A   Mostly Cloudy
3:15 AM 44.6 °F 40.2 °F 42.8 °F 93% 30.25 in 7.0 mi North 8.1 mph - N/A   Mostly Cloudy
3:35 AM 46.4 °F 40.7 °F 42.8 °F 87% 30.26 in 10.0 mi North 12.7 mph - N/A   Mostly Cloudy
3:55 AM 44.6 °F 37.8 °F 41.0 °F 87% 30.27 in 10.0 mi North 15.0 mph - N/A   Mostly Cloudy
4:15 AM 44.6 °F 37.4 °F 39.2 °F 81% 30.28 in 10.0 mi North 16.1 mph - N/A   Mostly Cloudy
4:35 AM 42.8 °F 35.4 °F 37.4 °F 81% 30.29 in 10.0 mi North 15.0 mph - N/A   Mostly Cloudy
4:55 AM 42.8 °F 34.5 °F 35.6 °F 76% 30.30 in 10.0 mi North 18.4 mph - N/A   Mostly Cloudy
5:15 AM 41.0 °F 33.5 °F 33.8 °F 76% 30.31 in 10.0 mi NNE 13.8 mph - N/A   Mostly Cloudy
5:35 AM 41.0 °F 32.5 °F 32.0 °F 70% 30.33 in 10.0 mi NNE 17.3 mph - N/A   Overcast
5:55 AM 41.0 °F 32.8 °F 30.2 °F 65% 30.35 in 10.0 mi North 16.1 mph - N/A   Overcast
6:15 AM 41.0 °F 33.1 °F 30.2 °F 65% 30.36 in 10.0 mi NNE 15.0 mph - N/A   Overcast
6:35 AM 39.2 °F 30.8 °F 30.2 °F 70% 30.36 in 10.0 mi NNE 15.0 mph - N/A   Overcast
6:55 AM 39.2 °F 32.0 °F 30.2 °F 70% 30.37 in 10.0 mi NNE 11.5 mph - N/A   Mostly Cloudy
7:15 AM 39.2 °F 30.5 °F 28.4 °F 65% 30.38 in 10.0 mi NNE 16.1 mph 20.7 mph N/A   Overcast
7:35 AM 39.2 °F 32.0 °F 28.4 °F 65% 30.38 in 10.0 mi NNE 11.5 mph - N/A   Overcast
7:55 AM 39.2 °F 31.2 °F 28.4 °F 65% 30.39 in 10.0 mi NNE 13.8 mph 17.3 mph N/A   Mostly Cloudy
8:15 AM 39.2 °F 32.0 °F 28.4 °F 65% 30.39 in 10.0 mi NNE 11.5 mph - N/A   Overcast
8:35 AM 39.2 °F 30.8 °F 28.4 °F 65% 30.40 in 10.0 mi NNE 15.0 mph - N/A   Overcast
8:55 AM 37.4 °F 28.2 °F 24.8 °F 60% 30.41 in 10.0 mi NNE 16.1 mph - N/A   Overcast
9:15 AM 37.4 °F 28.9 °F 23.0 °F 56% 30.42 in 10.0 mi NE 13.8 mph - N/A   Overcast
9:35 AM 39.2 °F 30.8 °F 24.8 °F 56% 30.42 in 10.0 mi NNE 15.0 mph - N/A   Overcast
9:55 AM 37.4 °F 28.9 °F 23.0 °F 56% 30.43 in 10.0 mi NE 13.8 mph 20.7 mph N/A   Overcast
10:15 AM 37.4 °F 28.5 °F 23.0 °F 56% 30.43 in 10.0 mi NE 15.0 mph - N/A   Overcast
10:35 AM 39.2 °F 31.2 °F 23.0 °F 52% 30.43 in 10.0 mi NE 13.8 mph - N/A   Overcast
10:55 AM 39.2 °F 31.6 °F 23.0 °F 52% 30.44 in 10.0 mi NE 12.7 mph - N/A   Overcast
11:15 AM 39.2 °F 31.2 °F 24.8 °F 56% 30.43 in 10.0 mi NE 13.8 mph 19.6 mph N/A   Mostly Cloudy
11:35 AM 41.0 °F 33.9 °F 24.8 °F 53% 30.41 in 10.0 mi NE 12.7 mph - N/A   Mostly Cloudy
11:55 AM 41.0 °F 33.1 °F 24.8 °F 53% 30.41 in 10.0 mi NNE 15.0 mph 18.4 mph N/A   Mostly Cloudy
12:15 PM 41.0 °F 33.9 °F 24.8 °F 53% 30.39 in 10.0 mi NE 12.7 mph - N/A   Scattered Clouds
12:35 PM 41.0 °F 33.5 °F 23.0 °F 49% 30.38 in 10.0 mi NNE 13.8 mph - N/A   Scattered Clouds
12:55 PM 42.8 °F 36.2 °F 23.0 °F 46% 30.37 in 10.0 mi NE 12.7 mph - N/A   Scattered Clouds
1:15 PM 41.0 °F 33.9 °F 24.8 °F 53% 30.37 in 10.0 mi NNE 12.7 mph 16.1 mph N/A   Scattered Clouds
1:35 PM 42.8 °F 36.6 °F 26.6 °F 53% 30.35 in 10.0 mi NNE 11.5 mph 20.7 mph N/A   Scattered Clouds
1:55 PM 42.8 °F 36.6 °F 26.6 °F 53% 30.35 in 10.0 mi NNE 11.5 mph 16.1 mph N/A   Scattered Clouds
2:15 PM 42.8 °F 37.5 °F 26.6 °F 53% 30.34 in 10.0 mi NE 9.2 mph - N/A   Clear
2:35 PM 42.8 °F 36.2 °F 26.6 °F 53% 30.34 in 10.0 mi NE 12.7 mph - N/A   Scattered Clouds
2:55 PM 41.0 °F 33.9 °F 26.6 °F 57% 30.34 in 10.0 mi NE 12.7 mph 16.1 mph N/A   Overcast
3:15 PM 41.0 °F 34.3 °F 26.6 °F 57% 30.34 in 10.0 mi NE 11.5 mph - N/A   Overcast
3:35 PM 41.0 °F 34.3 °F 28.4 °F 61% 30.34 in 10.0 mi NNE 11.5 mph - N/A   Overcast
3:55 PM 41.0 °F 35.2 °F 28.4 °F 61% 30.33 in 10.0 mi NE 9.2 mph - N/A   Overcast
4:15 PM 41.0 °F 35.2 °F 28.4 °F 61% 30.33 in 10.0 mi NE 9.2 mph - N/A   Mostly Cloudy
4:35 PM 41.0 °F 35.8 °F 28.4 °F 61% 30.32 in 10.0 mi NE 8.1 mph - N/A   Overcast
4:55 PM 41.0 °F 36.4 °F 28.4 °F 61% 30.32 in 10.0 mi NE 6.9 mph - N/A   Overcast
5:15 PM 41.0 °F 36.4 °F 28.4 °F 61% 30.31 in 10.0 mi NE 6.9 mph - N/A   Overcast
5:35 PM 41.0 °F 35.2 °F 28.4 °F 61% 30.29 in 10.0 mi NE 9.2 mph - N/A   Overcast
5:55 PM 41.0 °F 35.8 °F 28.4 °F 61% 30.30 in 10.0 mi NE 8.1 mph - N/A   Overcast
6:15 PM 41.0 °F 36.4 °F 28.4 °F 61% 30.30 in 10.0 mi NE 6.9 mph - N/A   Overcast
6:35 PM 41.0 °F 36.4 °F 28.4 °F 61% 30.31 in 10.0 mi NE 6.9 mph - N/A   Overcast
6:55 PM 41.0 °F 35.8 °F 30.2 °F 65% 30.30 in 10.0 mi NE 8.1 mph - N/A   Overcast
7:15 PM 41.0 °F 34.7 °F 28.4 °F 61% 30.30 in 10.0 mi NNE 10.4 mph - N/A   Overcast
7:35 PM 41.0 °F 35.8 °F 28.4 °F 61% 30.30 in 10.0 mi NE 8.1 mph - N/A   Overcast
7:55 PM 41.0 °F 35.8 °F 28.4 °F 61% 30.29 in 10.0 mi NE 8.1 mph - N/A   Overcast
8:15 PM 41.0 °F 35.8 °F 28.4 °F 61% 30.28 in 10.0 mi NE 8.1 mph - N/A   Overcast
8:35 PM 41.0 °F 36.4 °F 28.4 °F 61% 30.27 in 10.0 mi NE 6.9 mph - N/A   Overcast
8:55 PM 41.0 °F 36.4 °F 30.2 °F 65% 30.26 in 10.0 mi ENE 6.9 mph - N/A   Overcast
9:15 PM 41.0 °F 38.0 °F 30.2 °F 65% 30.26 in 10.0 mi ENE 4.6 mph - N/A   Overcast
9:35 PM 41.0 °F 35.8 °F 28.4 °F 61% 30.24 in 10.0 mi East 8.1 mph - N/A   Overcast
9:55 PM 41.0 °F 35.8 °F 28.4 °F 61% 30.22 in 10.0 mi East 8.1 mph - N/A   Overcast
10:15 PM 41.0 °F 35.8 °F 26.6 °F 57% 30.21 in 10.0 mi East 8.1 mph - N/A   Overcast
10:35 PM 41.0 °F 38.0 °F 26.6 °F 57% 30.23 in 10.0 mi East 4.6 mph - N/A   Overcast
10:55 PM 42.8 °F 41.1 °F 26.6 °F 53% 30.23 in 10.0 mi East 3.5 mph - N/A   Overcast
11:15 PM 41.0 °F 39.0 °F 28.4 °F 61% 30.23 in 10.0 mi ENE 3.5 mph - N/A   Overcast
11:35 PM 41.0 °F 39.0 °F 28.4 °F 61% 30.23 in 10.0 mi East 3.5 mph - N/A   Overcast
11:55 PM 42.8 °F 40.1 °F 28.4 °F 57% 30.22 in 10.0 mi East 4.6 mph - N/A   Overcast